Location: Pl�tzky
(52.0521°N, 11.8020°E)
Time: 19:27:21
(UTC+00:00)

Cosmos 1842 Rocket - Pass Details

Date: 22 November 2019
Orbit: 605 x 634 km, 82.5° (Epoch: 05 December)

Event Time Altitude Azimuth Distance (km) Brightness Sun altitude
Rises 15:46:50 0° 200° (SSW) 2,918 7.8 -5.4°
Reaches altitude 10° 15:49:06 10° 204° (SSW) 2,012 7.0 -5.7°
Maximum altitude 15:53:31 59° 284° (WNW) 733 4.3 -6.3°
Drops below altitude 10° 15:57:56 10° 4° (N) 2,013 5.9 -6.9°
Sets 16:00:12 0° 9° (N) 2,920 6.7 -7.2°
